[TLELIST] Archives

 

[TLELIST] Current TLEs

April 4th 2026 PDT

0 HST 1 20580U 90037B 26093.66929401 .00012406 00000-0 40809-3 0 9998 2 20580 28.4724 229.5454 0002132 51.9469 308.1319 15.29899616777144 0 ISS (ZARYA) 1 25544U 98067A 26094.06925453 .00011847 00000-0 22464-3 0 9997 2 25544 51.6326 306.8840 0006251 269.7954 90.2318 15.48758130560264 0 CXO 1 25867U 99040B 26095.33038449 .00000781 00000-0 00000-0 0 9992 2 25867 54.9818 118.8093 7953036 310.6470 0.0525 0.37805440 17044 ...Continue Reading

[TLELIST] Current TLEs

April 3rd 2026 PDT

0 HST 1 20580U 90037B 26093.08220152 .00012851 00000-0 42314-3 0 9998 2 20580 28.4722 233.5527 0002097 46.0516 314.0252 15.29886463777054 0 ISS (ZARYA) 1 25544U 98067A 26093.10136821 .00012012 00000-0 22784-3 0 9994 2 25544 51.6327 311.6710 0006237 265.7481 94.2795 15.48735493560114 0 CXO 1 25867U 99040B 26095.33038449 .00000781 00000-0 00000-0 0 9992 2 25867 54.9818 118.8093 7953036 310.6470 0.0525 0.37805440 17044 ...Continue Reading

[TLELIST] Current TLEs

April 2nd 2026 PDT

0 HST 1 20580U 90037B 26092.10370228 .00009025 00000-0 29535-3 0 9999 2 20580 28.4722 240.2324 0002043 36.1686 323.9047 15.29860039776908 0 ISS (ZARYA) 1 25544U 98067A 26092.13346771 .00010892 00000-0 20755-3 0 9993 2 25544 51.6331 316.4579 0006240 262.1298 97.8982 15.48713693559962 0 CXO 1 25867U 99040B 26092.68652473 .00000738 00000-0 00000+0 0 9997 2 25867 54.9638 118.8603 7957023 310.6798 0.0859 0.37810289 17041 ...Continue Reading

[TLELIST] Current TLEs

April 2nd 2026 PDT

0 HST 1 20580U 90037B 26092.10370228 .00009025 00000-0 29535-3 0 9999 2 20580 28.4722 240.2324 0002043 36.1686 323.9047 15.29860039776908 0 ISS (ZARYA) 1 25544U 98067A 26092.13346771 .00010892 00000-0 20755-3 0 9993 2 25544 51.6331 316.4579 0006240 262.1298 97.8982 15.48713693559962 0 CXO 1 25867U 99040B 26092.68652473 .00000738 00000-0 00000+0 0 9997 2 25867 54.9638 118.8603 7957023 310.6798 0.0859 0.37810289 17041 ...Continue Reading

[TLELIST] Current TLEs

April 1st 2026 PDT

0 HST 1 20580U 90037B 26091.12518911 .00010706 00000-0 35185-3 0 9999 2 20580 28.4719 246.9114 0001974 26.3027 333.7668 15.29843870776751 0 ISS (ZARYA) 1 25544U 98067A 26091.10102623 .00008862 00000-0 17059-3 0 9992 2 25544 51.6334 321.5639 0006224 257.9417 102.0874 15.48690056559805 0 CXO 1 25867U 99040B 26092.68652473 .00000738 00000-0 00000+0 0 9997 2 25867 54.9638 118.8603 7957023 310.6798 0.0859 0.37810289 17041 ...Continue Reading

[TLELIST] Current TLEs

March 31st 2026 PDT

0 HST 1 20580U 90037B 26090.14666398 .00010310 00000-0 33878-3 0 9991 2 20580 28.4719 253.5904 0001890 15.8116 344.2539 15.29823594776600 0 ISS (ZARYA) 1 25544U 98067A 26090.13309952 .00011434 00000-0 21777-3 0 9999 2 25544 51.6341 326.3497 0006203 253.7499 106.2807 15.48671303559658 0 CXO 1 25867U 99040B 26092.68652474 .00000738 00000-0 00000-0 0 9999 2 25867 54.9638 118.8603 7957023 310.6798 0.0859 0.37810289 17041 ...Continue Reading

[TLELIST] Current TLEs

March 30th 2026 PDT

0 HST 1 20580U 90037B 26089.16812659 .00010500 00000-0 34538-3 0 9999 2 20580 28.4719 260.2692 0001806 5.3681 354.6933 15.29803034776450 0 ISS (ZARYA) 1 25544U 98067A 26089.16515940 .00012299 00000-0 23377-3 0 9994 2 25544 51.6344 331.1363 0006182 249.8595 110.1729 15.48649503559504 0 CXO 1 25867U 99040B 26090.04236321 .00000780 00000-0 00000+0 0 9992 2 25867 54.9448 118.9145 7963177 310.7103 0.1107 0.37810947 17026 ...Continue Reading

[TLELIST] Current TLEs

March 29th 2026 PDT

0 HST 1 20580U 90037B 26088.18957586 .00010418 00000-0 34286-3 0 9997 2 20580 28.4724 266.9491 0001756 354.8838 5.1740 15.29783443776305 0 ISS (ZARYA) 1 25544U 98067A 26088.13267411 .00012260 00000-0 23326-3 0 9999 2 25544 51.6344 336.2407 0006215 245.2164 114.8178 15.48624340559341 0 CXO 1 25867U 99040B 26090.04236321 .00000780 00000-0 00000+0 0 9992 2 25867 54.9448 118.9145 7963177 310.7103 0.1107 0.37810947 17026 ...Continue Reading

[TLELIST] Current TLEs

March 28th 2026 PDT

0 HST 1 20580U 90037B 26087.21101204 .00008763 00000-0 28741-3 0 9997 2 20580 28.4721 273.6275 0001668 343.6247 16.4295 15.29763624776151 0 ISS (ZARYA) 1 25544U 98067A 26087.16470415 .00012619 00000-0 24003-3 0 9992 2 25544 51.6345 341.0267 0006226 240.9881 119.0483 15.48601072559196 0 CXO 1 25867U 99040B 26090.04236321 .00000780 00000-0 00000-0 0 9993 2 25867 54.9448 118.9145 7963177 310.7103 0.1107 0.37810947 17026 ...Continue Reading

[TLELIST] Current TLEs

March 27th 2026 PDT

0 HST 1 20580U 90037B 26086.23243692 .00007403 00000-0 24183-3 0 9992 2 20580 28.4721 280.3064 0001626 332.1046 27.9462 15.29746183776004 0 ISS (ZARYA) 1 25544U 98067A 26086.13218664 .00012923 00000-0 24583-3 0 9995 2 25544 51.6343 346.1324 0006239 237.1062 122.9326 15.48575012559033 0 CXO 1 25867U 99040B 26087.39727452 .00000869 00000-0 00000-0 0 9995 2 25867 54.9043 118.9884 7970252 310.7201 0.0501 0.37807311 17015 ...Continue Reading
  • This mailing list is a public mailing list - anyone may join or leave, at any time.
  • This mailing list is announce-only.

International Space Station (ISS) / Hubble Space Telescope (HST) / Chandra X-Ray Observatory Orbital Data via EMAIL

Privacy Policy:

Private list